Hourly Data Report for September 20, 2017

All times are specified in Local Standard Time (LST). Add 1 hour to adjust for Daylight Saving Time where and when it is observed.

BUCTOUCHE CDA CS
NEW BRUNSWICK

46°25'49.006" N
64°46'05.009" W
35.90 m
8100593
71666
ABT

Download Data

Hourly Data (September 2017)
Hourly Data Report for September 20, 2017
Temp Definition
°C
Dew Point Temp Definition
°C
Rel Hum Definition
%
Wind Dir Definition
10's deg

Wind Spd Definition
km/h
Visibility Definition
km
Stn Press Definition
kPa
Hmdx Definition


Wind Chill Definition


Weather Definition


TIME
00:00 19.0 17.9 94 15 5   101.52     LegendNANA
01:00 18.9 17.9 94 16 7   101.48     LegendNANA
02:00 18.6 17.6 94   0   101.46     LegendNANA
03:00 18.7 17.9 95 17 6   101.42     LegendNANA
04:00 18.8 17.8 94 16 3   101.38     LegendNANA
05:00 18.5 17.6 94 28 4   101.36     LegendNANA
06:00 18.0 17.1 95   0   101.37     LegendNANA
07:00 18.6 17.8 95   0   101.38     LegendNANA
08:00 19.2 18.3 95 12 1   101.38     LegendNANA
09:00 19.4 18.5 94   0   101.34     LegendNANA
10:00 20.8 18.9 89 36 4   101.32 27   LegendNANA
11:00 21.6 18.8 84 34 5   101.28 28   LegendNANA
12:00 21.9 18.6 82 8 5   101.22 28   LegendNANA
13:00 22.3 19.0 81 5 5   101.15 29   LegendNANA
14:00 22.2 18.8 81 4 9   101.12 29   LegendNANA
15:00 22.6 18.4 77 6 9   101.07 29   LegendNANA
16:00 22.2 16.8 72 5 12   101.08 27   LegendNANA
17:00 20.6 17.7 84 4 14   101.13 26   LegendNANA
18:00 17.6 15.9 90 2 8   101.13     LegendNANA
19:00 16.1 15.0 94 2 7   101.15     LegendNANA
20:00 16.4 15.4 94 1 9   101.21     LegendNANA
21:00 16.2 14.9 92 6 6   101.25     LegendNANA
22:00 15.7 14.3 92 3 6   101.31     LegendNANA
23:00 15.4 14.2 92 34 4   101.39     LegendNANA

Notes on Data Quality.

Legend

  • E = Estimated
  • M = Missing
  • NA = Not Available
  • ‡ = Partner data that is not subject to review by the National Climate Archives
Date modified: